Tracking 31027 objects as of 19-Jul-2025
HD Live streaming from Space Station
objects crossing your sky now

COSMOS 2251 DEB

Track COSMOS 2251 DEB now!
10-day predictions


NORAD ID: 35462
Int'l Code: 1993-036ALG
Perigee: 741.1 km
Apogee: 869.7 km
Inclination: 74.0 °
Period: 100.8 minutes
Semi major axis: 7176 km
RCS: 0.0133 m2 (small)
Launch date: June 16, 1993
Source: Commonwealth of Independent States (former USSR) (CIS)
Launch site: PLESETSK MISSILE AND SPACE COMPLEX (PKMTR)

Note: This is SATELLITE DEBRIS
Your satellite tracking list
SPACEBEE-132
Track 1 satellite(s)




NASA's NSSDC Master Catalog

Two Line Element Set (TLE):
1 35462U 93036ALG 25199.29891863  .00001835  00000-0  71761-3 0  9995
2 35462  74.0355 176.1447 0089609 249.0925 110.0614 14.28061546642753
Source of the keplerian elements: AFSPC